Time,TemperatureF,DewpointF,PressureIn,WindDirection,WindDirectionDegrees,WindSpeedMPH,WindSpeedGustMPH,Humidity,HourlyPrecipIn,Conditions,Clouds,dailyrainin,SoftwareType,DateUTC
2013-05-29 00:02:00,64.0,61.0,29.90,SW,217,0.0,-999.0,91,-99.99,,,-99.99,,2013-05-29 04:02:00,
2013-05-29 00:12:00,64.0,62.0,29.88,East,88,0.0,-999.0,92,-99.99,,,-99.99,,2013-05-29 04:12:00,
2013-05-29 00:23:00,64.0,62.0,29.88,East,88,0.0,-999.0,92,-99.99,,,-99.99,,2013-05-29 04:23:00,
2013-05-29 00:33:00,64.0,62.0,29.92,SW,224,2.0,-999.0,94,-99.99,,,-99.99,,2013-05-29 04:33:00,
2013-05-29 00:42:00,64.0,62.0,29.92,SW,224,2.0,-999.0,94,-99.99,,,-99.99,,2013-05-29 04:42:00,
2013-05-29 00:52:00,64.0,62.0,29.90,SW,224,1.0,-999.0,94,-99.99,,,-99.99,,2013-05-29 04:52:00,
2013-05-29 01:02:00,64.0,62.0,29.88,SW,224,0.0,-999.0,94,-99.99,,,-99.99,,2013-05-29 05:02:00,
2013-05-29 01:12:00,64.0,62.0,29.88,SW,224,0.0,-999.0,94,-99.99,,,-99.99,,2013-05-29 05:12:00,
2013-05-29 01:22:00,63.0,62.0,29.88,SW,224,1.0,-999.0,95,-99.99,,,-99.99,,2013-05-29 05:22:00,
2013-05-29 01:32:00,63.0,62.0,29.91,SW,224,1.0,-999.0,95,-99.99,,,-99.99,,2013-05-29 05:32:00,
2013-05-29 01:42:00,63.0,62.0,29.91,SW,224,1.0,-999.0,95,-99.99,,,-99.99,,2013-05-29 05:42:00,
2013-05-29 01:52:00,63.0,62.0,29.91,SW,224,0.0,-999.0,96,-99.99,,,-99.99,,2013-05-29 05:52:00,
2013-05-29 02:01:00,63.0,62.0,29.90,SW,224,0.0,-999.0,96,-99.99,,,-99.99,,2013-05-29 06:01:00,
2013-05-29 02:11:00,63.0,62.0,29.90,SW,224,0.0,-999.0,96,-99.99,,,-99.99,,2013-05-29 06:11:00,
2013-05-29 02:21:00,62.0,61.0,29.91,SW,224,0.0,-999.0,96,-99.99,,,-99.99,,2013-05-29 06:21:00,
2013-05-29 02:31:00,62.0,61.0,29.90,SW,224,0.0,-999.0,96,-99.99,,,-99.99,,2013-05-29 06:31:00,
2013-05-29 02:42:00,62.0,61.0,29.90,SW,224,0.0,-999.0,96,-99.99,,,-99.99,,2013-05-29 06:42:00,
2013-05-29 02:52:00,63.0,62.0,29.89,SW,224,0.0,-999.0,97,-99.99,,,-99.99,,2013-05-29 06:52:00,
2013-05-29 03:01:00,63.0,62.0,29.88,SW,224,0.0,-999.0,97,-99.99,,,-99.99,,2013-05-29 07:01:00,
2013-05-29 03:11:00,63.0,62.0,29.88,SW,224,0.0,-999.0,97,-99.99,,,-99.99,,2013-05-29 07:11:00,
2013-05-29 03:21:00,63.0,62.0,29.88,SW,224,0.0,-999.0,97,-99.99,,,-99.99,,2013-05-29 07:21:00,
2013-05-29 03:34:00,63.0,62.0,29.88,SW,224,0.0,-999.0,97,-99.99,,,-99.99,,2013-05-29 07:34:00,
2013-05-29 03:42:00,63.0,62.0,29.88,SW,224,0.0,-999.0,97,-99.99,,,-99.99,,2013-05-29 07:42:00,
2013-05-29 03:52:00,63.0,62.0,29.88,SW,224,0.0,-999.0,97,-99.99,,,-99.99,,2013-05-29 07:52:00,
2013-05-29 04:02:00,63.0,62.0,29.88,SW,224,0.0,-999.0,97,-99.99,,,-99.99,,2013-05-29 08:02:00,
2013-05-29 04:11:00,63.0,62.0,29.88,SW,224,0.0,-999.0,97,-99.99,,,-99.99,,2013-05-29 08:11:00,
2013-05-29 04:21:00,64.0,63.0,29.89,SW,224,1.0,-999.0,97,-99.99,,,-99.99,,2013-05-29 08:21:00,
2013-05-29 04:32:00,64.0,63.0,29.90,SW,223,1.0,-999.0,97,-99.99,,,-99.99,,2013-05-29 08:32:00,
2013-05-29 04:42:00,64.0,63.0,29.90,SW,223,1.0,-999.0,97,-99.99,,,-99.99,,2013-05-29 08:42:00,
2013-05-29 04:52:00,65.0,64.0,29.90,SSW,206,3.0,-999.0,97,-99.99,,,-99.99,,2013-05-29 08:52:00,
2013-05-29 05:01:00,67.0,66.0,29.90,SSE,168,3.0,-999.0,96,-99.99,,,-99.99,,2013-05-29 09:01:00,
2013-05-29 05:11:00,67.0,66.0,29.90,SSE,168,3.0,-999.0,96,-99.99,,,-99.99,,2013-05-29 09:11:00,
2013-05-29 05:21:00,67.0,66.0,29.88,SSW,198,2.0,-999.0,95,-99.99,,,-99.99,,2013-05-29 09:21:00,
2013-05-29 05:33:00,67.0,66.0,29.87,SSW,196,2.0,-999.0,95,-99.99,,,-99.99,,2013-05-29 09:33:00,
2013-05-29 05:42:00,67.0,66.0,29.87,SSW,196,2.0,-999.0,95,-99.99,,,-99.99,,2013-05-29 09:42:00,
2013-05-29 05:52:00,66.0,65.0,29.86,South,179,1.0,-999.0,95,-99.99,,,-99.99,,2013-05-29 09:52:00,
2013-05-29 06:02:00,66.0,65.0,29.88,South,179,3.0,-999.0,95,-99.99,,,-99.99,,2013-05-29 10:02:00,
2013-05-29 06:12:00,66.0,65.0,29.88,South,179,3.0,-999.0,95,-99.99,,,-99.99,,2013-05-29 10:12:00,
2013-05-29 06:22:00,66.0,65.0,29.89,South,179,2.0,-999.0,95,-99.99,,,-99.99,,2013-05-29 10:22:00,
2013-05-29 06:32:00,66.0,65.0,29.89,South,179,2.0,-999.0,95,-99.99,,,-99.99,,2013-05-29 10:32:00,
2013-05-29 06:42:00,66.0,65.0,29.89,South,179,2.0,-999.0,95,-99.99,,,-99.99,,2013-05-29 10:42:00,
2013-05-29 06:53:00,66.0,65.0,29.90,South,179,1.0,-999.0,95,-99.99,,,-99.99,,2013-05-29 10:53:00,
2013-05-29 07:02:00,67.0,66.0,29.90,South,179,1.0,-999.0,95,-99.99,,,-99.99,,2013-05-29 11:02:00,
2013-05-29 07:12:00,67.0,66.0,29.90,South,179,1.0,-999.0,95,-99.99,,,-99.99,,2013-05-29 11:12:00,
2013-05-29 07:22:00,67.0,66.0,29.93,South,179,2.0,-999.0,95,-99.99,,,-99.99,,2013-05-29 11:22:00,
2013-05-29 07:32:00,67.0,66.0,29.94,SSW,195,2.0,-999.0,96,-99.99,,,-99.99,,2013-05-29 11:32:00,
2013-05-29 07:42:00,67.0,66.0,29.94,SSW,195,2.0,-999.0,96,-99.99,,,-99.99,,2013-05-29 11:42:00,
2013-05-29 07:52:00,67.0,66.0,29.95,SW,219,4.0,-999.0,95,-99.99,,,-99.99,,2013-05-29 11:52:00,
2013-05-29 08:01:00,67.0,65.0,29.96,SSW,199,5.0,-999.0,94,-99.99,,,-99.99,,2013-05-29 12:01:00,
2013-05-29 08:11:00,67.0,65.0,29.96,SSW,199,5.0,-999.0,94,-99.99,,,-99.99,,2013-05-29 12:11:00,
2013-05-29 08:21:00,67.0,65.0,29.95,WSW,247,4.0,-999.0,92,-99.99,,,-99.99,,2013-05-29 12:21:00,
2013-05-29 08:32:00,67.0,63.0,29.96,SW,216,3.0,-999.0,88,-99.99,,,-99.99,,2013-05-29 12:32:00,
2013-05-29 08:42:00,67.0,63.0,29.96,SW,216,3.0,-999.0,88,-99.99,,,-99.99,,2013-05-29 12:42:00,
2013-05-29 08:52:00,67.0,62.0,29.96,SW,215,2.0,-999.0,84,-99.99,,,-99.99,,2013-05-29 12:52:00,
2013-05-29 09:02:00,67.0,62.0,29.95,SSW,206,1.0,-999.0,83,-99.99,,,-99.99,,2013-05-29 13:02:00,
2013-05-29 09:11:00,67.0,62.0,29.95,SSW,206,1.0,-999.0,83,-99.99,,,-99.99,,2013-05-29 13:11:00,
2013-05-29 09:21:00,68.0,63.0,29.96,SSW,206,1.0,-999.0,84,-99.99,,,-99.99,,2013-05-29 13:21:00,
2013-05-29 09:32:00,68.0,62.0,29.96,SSW,203,2.0,-999.0,81,-99.99,,,-99.99,,2013-05-29 13:32:00,
2013-05-29 09:42:00,68.0,62.0,29.96,SSW,203,2.0,-999.0,81,-99.99,,,-99.99,,2013-05-29 13:42:00,
2013-05-29 09:53:00,69.0,62.0,29.97,SSW,195,2.0,-999.0,79,-99.99,,,-99.99,,2013-05-29 13:53:00,
2013-05-29 10:02:00,70.0,62.0,29.97,SSW,205,3.0,-999.0,77,-99.99,,,-99.99,,2013-05-29 14:02:00,
2013-05-29 10:11:00,70.0,62.0,29.97,SSW,205,3.0,-999.0,77,-99.99,,,-99.99,,2013-05-29 14:11:00,
2013-05-29 10:21:00,71.0,62.0,29.97,SSW,199,3.0,-999.0,73,-99.99,,,-99.99,,2013-05-29 14:21:00,
2013-05-29 10:32:00,72.0,62.0,29.98,SSW,206,5.0,-999.0,72,-99.99,,,-99.99,,2013-05-29 14:32:00,
2013-05-29 10:41:00,72.0,62.0,29.98,SSW,206,5.0,-999.0,72,-99.99,,,-99.99,,2013-05-29 14:41:00,
2013-05-29 10:52:00,73.0,63.0,29.99,South,174,3.0,-999.0,71,-99.99,,,-99.99,,2013-05-29 14:52:00,
2013-05-29 11:01:00,73.0,62.0,29.99,South,184,5.0,-999.0,69,-99.99,,,-99.99,,2013-05-29 15:01:00,
2013-05-29 11:11:00,74.0,61.0,29.99,South,191,5.0,-999.0,65,-99.99,,,-99.99,,2013-05-29 15:11:00,
2013-05-29 11:21:00,74.0,61.0,29.99,South,191,5.0,-999.0,65,-99.99,,,-99.99,,2013-05-29 15:21:00,
2013-05-29 11:33:00,73.0,62.0,30.01,SW,216,4.0,-999.0,69,-99.99,,,-99.99,,2013-05-29 15:33:00,
2013-05-29 11:42:00,73.0,62.0,30.01,SW,216,4.0,-999.0,69,-99.99,,,-99.99,,2013-05-29 15:42:00,
2013-05-29 11:53:00,73.0,63.0,30.01,SSW,196,4.0,-999.0,71,-99.99,,,-99.99,,2013-05-29 15:53:00,
2013-05-29 12:03:00,73.0,63.0,30.01,SSW,193,2.0,-999.0,72,-99.99,,,-99.99,,2013-05-29 16:03:00,
2013-05-29 12:12:00,73.0,63.0,30.01,SSW,193,2.0,-999.0,72,-99.99,,,-99.99,,2013-05-29 16:12:00,
2013-05-29 12:22:00,73.0,63.0,30.02,WSW,243,3.0,-999.0,71,-99.99,,,-99.99,,2013-05-29 16:22:00,
2013-05-29 12:32:00,73.0,64.0,30.02,WSW,243,0.0,-999.0,73,-99.99,,,-99.99,,2013-05-29 16:32:00,
2013-05-29 12:42:00,73.0,64.0,30.02,WSW,243,0.0,-999.0,73,-99.99,,,-99.99,,2013-05-29 16:42:00,
2013-05-29 12:52:00,73.0,64.0,30.02,SW,215,1.0,-999.0,73,-99.99,,,-99.99,,2013-05-29 16:52:00,
2013-05-29 13:02:00,73.0,64.0,30.02,SW,215,0.0,-999.0,73,-99.99,,,-99.99,,2013-05-29 17:02:00,
2013-05-29 13:12:00,73.0,64.0,30.02,SW,215,0.0,-999.0,73,-99.99,,,-99.99,,2013-05-29 17:12:00,
2013-05-29 13:22:00,73.0,64.0,30.02,SW,215,0.0,-999.0,73,-99.99,,,-99.99,,2013-05-29 17:22:00,
2013-05-29 13:32:00,74.0,64.0,30.02,SW,215,1.0,-999.0,71,-99.99,,,-99.99,,2013-05-29 17:32:00,
2013-05-29 13:42:00,74.0,64.0,30.02,SW,215,1.0,-999.0,71,-99.99,,,-99.99,,2013-05-29 17:42:00,
2013-05-29 13:52:00,75.0,64.0,30.02,SSW,202,2.0,-999.0,69,-99.99,,,-99.99,,2013-05-29 17:52:00,
2013-05-29 14:01:00,77.0,66.0,30.02,SW,224,3.0,-999.0,70,-99.99,,,-99.99,,2013-05-29 18:01:00,
2013-05-29 14:13:00,76.0,65.0,30.01,South,188,1.0,-999.0,70,-99.99,,,-99.99,,2013-05-29 18:13:00,
2013-05-29 14:22:00,76.0,65.0,30.01,South,188,1.0,-999.0,70,-99.99,,,-99.99,,2013-05-29 18:22:00,
2013-05-29 14:32:00,76.0,66.0,30.01,South,186,1.0,-999.0,71,-99.99,,,-99.99,,2013-05-29 18:32:00,
2013-05-29 14:42:00,76.0,66.0,30.01,South,186,1.0,-999.0,71,-99.99,,,-99.99,,2013-05-29 18:42:00,
2013-05-29 14:52:00,76.0,67.0,30.01,SSW,199,2.0,-999.0,73,-99.99,,,-99.99,,2013-05-29 18:52:00,
2013-05-29 15:02:00,76.0,67.0,30.01,SSW,198,2.0,-999.0,74,-99.99,,,-99.99,,2013-05-29 19:02:00,
2013-05-29 15:11:00,77.0,68.0,30.01,SW,222,2.0,-999.0,73,-99.99,,,-99.99,,2013-05-29 19:11:00,
2013-05-29 15:21:00,77.0,68.0,30.01,SW,222,2.0,-999.0,73,-99.99,,,-99.99,,2013-05-29 19:21:00,
2013-05-29 15:32:00,77.0,67.0,30.00,South,178,2.0,-999.0,72,-99.99,,,-99.99,,2013-05-29 19:32:00,
2013-05-29 15:44:00,78.0,67.0,30.00,SSW,205,3.0,-999.0,70,-99.99,,,-99.99,,2013-05-29 19:44:00,
2013-05-29 15:53:00,78.0,67.0,30.00,SSW,205,3.0,-999.0,70,-99.99,,,-99.99,,2013-05-29 19:53:00,
2013-05-29 16:02:00,78.0,67.0,30.00,South,186,4.0,-999.0,69,-99.99,,,-99.99,,2013-05-29 20:02:00,
2013-05-29 16:11:00,78.0,67.0,30.00,South,186,4.0,-999.0,69,-99.99,,,-99.99,,2013-05-29 20:11:00,
2013-05-29 16:22:00,79.0,68.0,30.00,SSW,195,2.0,-999.0,69,-99.99,,,-99.99,,2013-05-29 20:22:00,
2013-05-29 16:33:00,79.0,67.0,29.99,SSW,196,2.0,-999.0,67,-99.99,,,-99.99,,2013-05-29 20:33:00,
2013-05-29 16:42:00,79.0,67.0,29.99,SSW,196,2.0,-999.0,67,-99.99,,,-99.99,,2013-05-29 20:42:00,
2013-05-29 16:52:00,80.0,68.0,29.99,SSW,193,3.0,-999.0,68,-99.99,,,-99.99,,2013-05-29 20:52:00,
2013-05-29 17:02:00,80.0,68.0,29.98,SW,216,2.0,-999.0,68,-99.99,,,-99.99,,2013-05-29 21:02:00,
2013-05-29 17:12:00,80.0,68.0,29.98,SW,216,2.0,-999.0,68,-99.99,,,-99.99,,2013-05-29 21:12:00,
2013-05-29 17:22:00,81.0,69.0,29.98,SSW,208,2.0,-999.0,66,-99.99,,,-99.99,,2013-05-29 21:22:00,
2013-05-29 17:33:00,81.0,66.0,29.98,WSW,239,4.0,-999.0,61,-99.99,,,-99.99,,2013-05-29 21:33:00,
2013-05-29 17:43:00,81.0,66.0,29.98,WSW,239,4.0,-999.0,61,-99.99,,,-99.99,,2013-05-29 21:43:00,
2013-05-29 17:53:00,82.0,68.0,29.98,SW,219,4.0,-999.0,62,-99.99,,,-99.99,,2013-05-29 21:53:00,
2013-05-29 18:03:00,81.0,68.0,29.98,SSW,200,3.0,-999.0,64,-99.99,,,-99.99,,2013-05-29 22:03:00,
2013-05-29 18:12:00,81.0,68.0,29.98,SSW,200,3.0,-999.0,64,-99.99,,,-99.99,,2013-05-29 22:12:00,
2013-05-29 18:23:00,81.0,68.0,29.98,SSW,206,2.0,-999.0,65,-99.99,,,-99.99,,2013-05-29 22:23:00,
2013-05-29 18:33:00,82.0,66.0,29.97,SSW,198,3.0,-999.0,59,-99.99,,,-99.99,,2013-05-29 22:33:00,
2013-05-29 18:42:00,82.0,67.0,29.97,SW,220,4.0,-999.0,60,-99.99,,,-99.99,,2013-05-29 22:42:00,
2013-05-29 18:53:00,82.0,67.0,29.97,SW,220,4.0,-999.0,60,-99.99,,,-99.99,,2013-05-29 22:53:00,
2013-05-29 19:02:00,82.0,66.0,29.97,SSW,192,5.0,-999.0,58,-99.99,,,-99.99,,2013-05-29 23:02:00,
2013-05-29 19:12:00,82.0,66.0,29.97,SSW,192,5.0,-999.0,58,-99.99,,,-99.99,,2013-05-29 23:12:00,
2013-05-29 19:21:00,82.0,66.0,29.96,SSW,212,3.0,-999.0,58,-99.99,,,-99.99,,2013-05-29 23:21:00,
2013-05-29 19:33:00,82.0,66.0,29.96,SW,215,2.0,-999.0,58,-99.99,,,-99.99,,2013-05-29 23:33:00,
2013-05-29 19:42:00,82.0,65.0,29.96,SW,215,3.0,-999.0,56,-99.99,,,-99.99,,2013-05-29 23:42:00,
2013-05-29 19:53:00,82.0,65.0,29.96,SW,215,3.0,-999.0,56,-99.99,,,-99.99,,2013-05-29 23:53:00,
2013-05-29 20:01:00,81.0,64.0,29.96,SSW,212,3.0,-999.0,57,-99.99,,,-99.99,,2013-05-30 00:01:00,
2013-05-29 20:11:00,81.0,64.0,29.96,SSW,212,3.0,-999.0,57,-99.99,,,-99.99,,2013-05-30 00:11:00,
2013-05-29 20:21:00,81.0,65.0,29.96,SSW,210,2.0,-999.0,59,-99.99,,,-99.99,,2013-05-30 00:21:00,
2013-05-29 20:31:00,81.0,65.0,29.97,SSW,209,2.0,-999.0,59,-99.99,,,-99.99,,2013-05-30 00:31:00,
2013-05-29 20:42:00,81.0,65.0,29.97,SSW,209,2.0,-999.0,59,-99.99,,,-99.99,,2013-05-30 00:42:00,
2013-05-29 20:52:00,80.0,65.0,29.97,SSW,208,1.0,-999.0,60,-99.99,,,-99.99,,2013-05-30 00:52:00,
2013-05-29 21:01:00,79.0,64.0,29.97,SSW,208,1.0,-999.0,61,-99.99,,,-99.99,,2013-05-30 01:01:00,
2013-05-29 21:11:00,79.0,64.0,29.97,SSW,208,1.0,-999.0,61,-99.99,,,-99.99,,2013-05-30 01:11:00,
2013-05-29 21:21:00,79.0,65.0,29.98,SSW,208,0.0,-999.0,62,-99.99,,,-99.99,,2013-05-30 01:21:00,
2013-05-29 21:32:00,78.0,64.0,29.97,SSW,210,0.0,-999.0,63,-99.99,,,-99.99,,2013-05-30 01:32:00,
2013-05-29 21:41:00,78.0,64.0,29.97,SSW,210,0.0,-999.0,63,-99.99,,,-99.99,,2013-05-30 01:41:00,
2013-05-29 21:52:00,78.0,65.0,29.98,SSW,208,0.0,-999.0,65,-99.99,,,-99.99,,2013-05-30 01:52:00,
2013-05-29 22:01:00,77.0,65.0,29.98,SSW,208,0.0,-999.0,66,-99.99,,,-99.99,,2013-05-30 02:01:00,
2013-05-29 22:11:00,77.0,65.0,29.98,SSW,208,0.0,-999.0,66,-99.99,,,-99.99,,2013-05-30 02:11:00,
2013-05-29 22:21:00,76.0,64.0,29.98,SSW,206,0.0,-999.0,67,-99.99,,,-99.99,,2013-05-30 02:21:00,
2013-05-29 22:32:00,76.0,65.0,29.98,SSW,206,0.0,-999.0,68,-99.99,,,-99.99,,2013-05-30 02:32:00,
2013-05-29 22:42:00,76.0,65.0,29.98,SSW,206,0.0,-999.0,68,-99.99,,,-99.99,,2013-05-30 02:42:00,
2013-05-29 22:52:00,76.0,65.0,29.98,SSW,206,0.0,-999.0,68,-99.99,,,-99.99,,2013-05-30 02:52:00,
2013-05-29 23:01:00,75.0,65.0,29.98,SSW,206,0.0,-999.0,70,-99.99,,,-99.99,,2013-05-30 03:01:00,
2013-05-29 23:11:00,74.0,64.0,29.98,SSW,206,0.0,-999.0,71,-99.99,,,-99.99,,2013-05-30 03:11:00,
2013-05-29 23:21:00,74.0,64.0,29.98,SSW,206,0.0,-999.0,71,-99.99,,,-99.99,,2013-05-30 03:21:00,
2013-05-29 23:33:00,74.0,64.0,29.99,SSW,206,0.0,-999.0,70,-99.99,,,-99.99,,2013-05-30 03:33:00,
2013-05-29 23:43:00,74.0,64.0,29.99,SSW,206,0.0,-999.0,70,-99.99,,,-99.99,,2013-05-30 03:43:00,
2013-05-29 23:53:00,74.0,64.0,29.99,SSW,206,0.0,-999.0,70,-99.99,,,-99.99,,2013-05-30 03:53:00,